Regional Weather Roundup
Issued by NWS

Home | Current Version | Previous Version | Graphics & Text | Print | Product List | Glossary Off
Versions: 1 2 3 4 5 6 7 8 9 10 11 12 13 14 15 16 17 18 19 20 21 22 23 24 25 26 27 28 29 30 31 32 33 34 35 36 37 38 39 40 41 42 43 44 45 46 47 48 49 50

000
ASUS43 KDTX 040810
RWRMI
MICHIGAN HOURLY REGIONAL WEATHER ROUNDUP
NATIONAL WEATHER SERVICE DETROIT/PONTIAC MI
300 AM EST WED MAR 04 2015

NOTE: "FAIR" INDICATES FEW OR NO CLOUDS BELOW 12,000 FEET WITH NO
SIGNIFICANT WEATHER AND/OR OBSTRUCTION TO VISIBILITY.

MIZ047>049-052>055-059>063-066>070-074>076-081>083-040900-
SOUTHEAST LOWER MICHIGAN

CITY           SKY/WX    TMP DP  RH WIND       PRES   REMARKS
ADRIAN         CLOUDY    32  24  72 NW10      29.84R
ALMA           CLOUDY    29  23  81 W9        29.80R
ANN ARBOR      CLOUDY    31  23  72 NW10      29.82S
BAD AXE        CLOUDY    27  22  84 W9        29.77R
DETROIT CITY   CLOUDY    33  22  63 W6        29.82R
DETROIT        CLOUDY    33  24  69 W8        29.83R
FLINT          CLOUDY    30  21  69 W7        29.82R
GROSSE ILE     CLOUDY    34  25  69 NW12      29.81S
HILLSDALE      CLOUDY    31  26  82 NW8       29.81F
HOWELL         CLOUDY    28  23  79 W12       29.81S

CITY           SKY/WX    TMP DP  RH WIND       PRES   REMARKS
JACKSON        CLOUDY    30  22  72 W10       29.83R
LAMBERTVILLE   CLOUDY    36  27  69 W6        29.85R
LANSING        CLOUDY    29  22  75 W9        29.82R
LAPEER         NOT AVBL
MASON          CLOUDY    29  22  76 W6        29.83R
MONROE         CLOUDY    34  25  69 NW13      29.82S
MT. CLEMENS    CLOUDY    32  23  70 W9        29.79R
PONTIAC        CLOUDY    29  21  72 NW15      29.80R
PORT HOPE        N/A     28  20  71 VRB6      29.75R
PORT HURON     CLOUDY    30  23  74 W8        29.81S
TRI CITIES     CLOUDY    28  21  75 W13       29.79R
YPSILANTI      CLOUDY    34  23  64 W15       29.82S
$$
MIZ043>046-050>051-056>058-064>065-071>073-077>080-040900-
SOUTHWEST LOWER MICHIGAN

CITY           SKY/WX    TMP DP  RH WIND       PRES   REMARKS
BATTLE CREEK   CLOUDY    31  23  72 W8        29.84R
BENTON HARBOR  CLOUDY    31  26  82 W9        29.86S
BIG RAPIDS     CLOUDY    27  22  82 NW7       29.76S
COLDWATER      CLOUDY    31  24  75 W8        29.84R
HOLLAND        CLOUDY    31  23  72 W6        29.84R
GRAND RAPIDS   CLOUDY    30  22  72 W7        29.82R
KALAMAZOO        N/A    N/A N/A N/A MISG      29.84R
MARSHALL       CLOUDY    29  23  78 W7        29.84R
MUSKEGON       MOCLDY    30  20  66 W13       29.83R
$$
MIZ016>042-040900-
NORTHERN LOWER MICHIGAN

CITY           SKY/WX    TMP DP  RH WIND       PRES   REMARKS
ALPENA         LGT SNOW  26  21  81 W5        29.70R
BEAVER ISLAND  FLURRIES  19  14  79 NW9       29.75R
BELLAIRE       FLURRIES  24  16  71 NW5G18    29.77R
CADILLAC       FLURRIES  24  20  85 W6        29.72R
CHARLEVOIX     CLOUDY    19  14  81 W6        29.78R
FRANKFORT      CLOUDY    26  18  71 NW12      29.78R
GAYLORD        LGT SNOW  20  16  84 NW10G20   29.68R FOG
GRAYLING       LGT SNOW  23  21  91 W8        29.71R
HARBOR SPRINGS FLURRIES  20  12  72 W6        29.73R
HOUGHTON LAKE  MOCLDY    21  17  84 SW8       29.73R
MANISTEE       CLOUDY    28  18  64 W14       29.80R
OSCODA         FLURRIES  26  23  89 SW9       29.73R
PELLSTON       CLOUDY    19  10  68 NW18G25   29.73R
TRAVERSE CITY  LGT SNOW  26  21  81 NW9       29.75R
$$
MIZ007>008-015-040900-
EASTERN UPPER MICHIGAN

CITY           SKY/WX    TMP DP  RH WIND       PRES   REMARKS
KINROSS        CLOUDY    18  14  86 W17G25    29.68R
MACKINAC ISLAN FLURRIES  18  12  77 NW12G17   29.71R
NEWBERRY       CLOUDY    15   8  73 NW13G25   29.71R
S. S. MARIE    LGT SNOW  17  11  77 W17G30    29.68R
$$
MIZ004>006-011>014-085-040900-
CENTRAL UPPER MICHIGAN

CITY           SKY/WX    TMP DP  RH WIND       PRES   REMARKS
MANISTIQUE     CLOUDY    19  12  75 N10       29.75R
ESCANABA       PTCLDY    12   5  73 W8        29.78R
MENOMINEE      CLEAR     18   1  49 NW8G16    29.81R
SAWYER-GWINN   CLOUDY    10   4  75 NW3       29.73R
$$
MIZ001>003-009>011-084-040900-
WESTERN UPPER MICHIGAN

CITY           SKY/WX    TMP DP  RH WIND       PRES   REMARKS
IRON MOUNTAIN  CLEAR     12   1  61 W12       29.76R WCI  -2
HOUGHTON       CLOUDY     7   0  73 NW21G31   29.74R HAZE    WCI -13
COPPER HARBOR    N/A      9   2  73 N20G30    29.75R WCI -10
IRONWOOD       CLOUDY     5  -4  66 W15       29.82R WCI -13
$$

ABBREVIATIONS USED IN REMARKS
   TC - TEMPERATURE IN CELSIUS
  WCI - WIND CHILL INDEX
   HX - HEAT INDEX
  VSB - VISIBILITY



USA.gov is the U.S. government's official web portal to all federal, state and local government web resources and services.